GW4368 Weather Reports


time (UTC)temp
C
wind
direction
speed
KPH
gust
KPH
rain 1hr
cm
rain 24hr
cm
rain mn
cm
humidity
%
barometer
mb
20260505140559 21 330 9.7 11.3 0.00 0.00 0.00 66 1005.4
20260505125013 18 330 6.4 8.0 0.00 0.00 0.00 75 1005.2
20260505124510 17 329 6.4 8.0 0.00 0.00 0.00 76 1005.0
20260505124006 17 330 3.2 4.8 0.00 0.00 0.00 78 1005.0
20260505123503 17 330 3.2 3.2 0.00 0.00 0.00 79 1005.0
20260505122958 16 330 3.2 4.8 0.00 0.00 0.00 79 1004.8
20260505122456 16 330 9.7 12.9 0.00 0.00 0.00 79 1004.8
20260505121953 16 330 11.3 12.9 0.00 0.00 0.00 80 1004.8
20260505121449 16 330 4.8 8.0 0.00 0.00 0.00 81 1004.6
20260505120945 16 330 4.8 4.8 0.00 0.00 0.00 82 1004.7
20260505120442 15 330 3.2 4.8 0.00 0.00 0.00 83 1004.7
20260505115941 15 330 3.2 3.2 0.00 0.00 0.00 83 1004.7
20260505115438 15 330 4.8 8.0 0.00 0.00 0.00 84 1004.9
20260505114936 14 330 3.2 3.2 0.00 0.00 0.00 85 1004.8
20260505114432 14 330 6.4 8.0 0.00 0.00 0.00 85 1004.6
20260505113928 13 330 1.6 3.2 0.00 0.00 0.00 86 1004.7
20260505113425 13 329 1.6 3.2 0.00 0.00 0.00 87 1004.6
20260505112921 13 330 0.0 0.0 0.00 0.00 0.00 88 1004.6
20260505112419 12 330 0.0 0.0 0.00 0.00 0.00 90 1004.8
20260505111914 12 330 0.0 0.0 0.00 0.00 0.00 91 1004.5
20260505111409 12 330 1.6 1.6 0.00 0.00 0.00 92 1004.6
20260505110906 12 330 1.6 1.6 0.00 0.00 0.00 91 1004.3
20260505110403 12 330 0.0 0.0 0.00 0.00 0.00 92 1004.3
20260505101833 12 330 0.0 0.0 0.00 0.00 0.00 89 1004.1
20260505101328 12 330 1.6 1.6 0.00 0.00 0.00 90 1003.9
20260505100824 12 330 1.6 3.2 0.00 0.00 0.00 90 1004.0
20260505100321 12 330 0.0 0.0 0.00 0.00 0.00 90 1003.7
20260505095817 11 330 0.0 0.0 0.00 0.00 0.00 90 1004.0
20260505095315 12 330 1.6 1.6 0.00 0.00 0.00 90 1003.8
20260505094810 12 330 1.6 3.2 0.00 0.00 0.00 90 1003.8
20260505094308 12 330 1.6 3.2 0.00 0.00 0.00 90 1003.8
20260505093803 11 330 1.6 3.2 0.00 0.00 0.00 90 1003.8
20260505093301 12 330 1.6 1.6 0.00 0.00 0.00 89 1003.6
20260505092757 12 330 1.6 3.2 0.00 0.00 0.00 89 1003.7
20260505092256 11 330 1.6 3.2 0.00 0.00 0.00 89 1003.9
20260505091753 12 330 0.0 0.0 0.00 0.00 0.00 88 1003.8
20260505091250 12 330 1.6 1.6 0.00 0.00 0.00 87 1003.6
20260505090748 12 330 1.6 1.6 0.00 0.00 0.00 87 1003.7
20260505090246 12 330 1.6 3.2 0.00 0.00 0.00 86 1003.7
20260505085743 12 330 3.2 3.2 0.00 0.00 0.00 86 1003.6
20260505085242 12 330 1.6 1.6 0.00 0.00 0.00 86 1003.7
20260505084738 12 330 1.6 1.6 0.00 0.00 0.00 86 1003.8
20260505084238 12 330 3.2 3.2 0.00 0.00 0.00 85 1003.5
20260505083734 12 330 3.2 3.2 0.00 0.00 0.00 86 1003.5
20260505083231 12 330 3.2 3.2 0.00 0.00 0.00 85 1003.7
20260505082727 12 330 3.2 3.2 0.00 0.00 0.00 85 1003.5
20260505082224 12 330 3.2 3.2 0.00 0.00 0.00 85 1003.6
20260505081720 12 330 1.6 1.6 0.00 0.00 0.00 84 1003.6
20260505081217 12 330 3.2 3.2 0.00 0.00 0.00 84 1003.6
20260505080714 12 330 1.6 3.2 0.00 0.00 0.00 84 1003.4
20260505080210 12 330 3.2 3.2 0.00 0.00 0.00 84 1003.5
20260505075706 12 330 3.2 3.2 0.00 0.00 0.00 84 1003.3
20260505075203 12 330 1.6 1.6 0.00 0.00 0.00 83 1003.7
20260505074700 12 330 1.6 3.2 0.00 0.00 0.00 82 1003.4
20260505074157 13 330 3.2 3.2 0.00 0.00 0.00 83 1003.2
20260505073654 12 330 1.6 1.6 0.00 0.00 0.00 83 1003.4
20260505073153 12 330 1.6 1.6 0.00 0.00 0.00 83 1003.4
20260505072648 13 330 1.6 3.2 0.00 0.00 0.00 82 1003.2
20260505072145 13 330 1.6 1.6 0.00 0.00 0.00 81 1003.3
20260505071640 13 330 1.6 3.2 0.00 0.00 0.00 82 1003.5
20260505071138 13 330 1.6 1.6 0.00 0.00 0.00 81 1003.4
20260505070635 13 330 1.6 1.6 0.00 0.00 0.00 81 1003.3
20260505070132 13 330 1.6 3.2 0.00 0.00 0.00 80 1003.4
20260505065628 13 330 4.8 4.8 0.00 0.00 0.00 79 1003.3
20260505065124 13 330 4.8 4.8 0.00 0.00 0.00 79 1003.5
20260505064621 13 330 1.6 3.2 0.00 0.00 0.00 79 1003.4
20260505064120 13 330 4.8 4.8 0.00 0.00 0.00 79 1003.2
20260505063617 13 330 4.8 4.8 0.00 0.00 0.00 78 1003.5
20260505063113 13 330 3.2 4.8 0.00 0.00 0.00 77 1003.6
20260505062609 14 330 3.2 3.2 0.00 0.00 0.00 77 1003.3
20260505062107 14 330 3.2 3.2 0.00 0.00 0.00 76 1003.4
20260505061604 14 331 3.2 4.8 0.00 0.00 0.00 75 1003.4
20260505061102 14 330 6.4 9.7 0.00 0.00 0.00 75 1003.5
20260505060559 15 330 6.4 8.0 0.00 0.00 0.00 75 1003.7
20260505060056 15 330 4.8 4.8 0.00 0.00 0.00 75 1003.6
20260505055551 15 330 4.8 4.8 0.00 0.00 0.00 74 1003.6
20260505055048 15 331 3.2 4.8 0.00 0.00 0.00 74 1003.6
20260505054545 15 331 1.6 1.6 0.00 0.00 0.00 74 1003.8
20260505054043 15 331 1.6 1.6 0.00 0.00 0.00 74 1003.8
20260505053540 15 330 1.6 1.6 0.00 0.00 0.00 74 1003.8
20260505053037 15 331 3.2 3.2 0.00 0.00 0.00 73 1003.9
20260505052533 15 331 1.6 1.6 0.00 0.00 0.00 73 1004.0
20260505052031 15 330 3.2 3.2 0.00 0.00 0.00 73 1003.7
20260505051528 15 330 1.6 3.2 0.00 0.00 0.00 73 1003.8
20260505051026 15 330 3.2 4.8 0.00 0.00 0.00 73 1003.9
20260505050524 15 330 3.2 3.2 0.00 0.00 0.00 72 1003.9
20260505041451 16 331 4.8 8.0 0.00 0.00 0.00 69 1004.0
20260505040949 16 330 6.4 8.0 0.00 0.00 0.00 69 1004.1
20260505040446 16 330 3.2 3.2 0.00 0.00 0.00 69 1003.9
20260505035943 16 330 3.2 3.2 0.00 0.00 0.00 69 1004.2
20260505035439 16 330 1.6 1.6 0.00 0.00 0.00 69 1004.0
20260505034936 16 330 1.6 3.2 0.00 0.00 0.00 68 1004.0
20260505034432 16 330 1.6 1.6 0.00 0.00 0.00 68 1004.0
20260505033930 16 330 3.2 3.2 0.00 0.00 0.00 68 1004.1
20260505033426 16 331 4.8 8.0 0.00 0.00 0.00 67 1004.0
20260505032925 16 331 4.8 4.8 0.00 0.00 0.00 67 1004.3
20260505032421 16 331 4.8 4.8 0.00 0.00 0.00 67 1004.0
20260505031918 17 331 4.8 4.8 0.00 0.00 0.00 66 1004.0
20260505031415 17 331 4.8 4.8 0.00 0.00 0.00 65 1004.5
20260505030912 17 331 1.6 1.6 0.00 0.00 0.00 66 1004.2
20260505030408 17 331 6.4 8.0 0.00 0.00 0.00 65 1004.0
20260505025903 17 331 4.8 4.8 0.00 0.00 0.00 64 1004.1
20260505025401 17 331 3.2 3.2 0.00 0.00 0.00 63 1004.1
20260505024900 17 331 4.8 4.8 0.00 0.00 0.00 63 1004.4
20260505024357 17 331 3.2 3.2 0.00 0.00 0.00 63 1004.1
20260505023854 17 331 4.8 4.8 0.00 0.00 0.00 62 1004.0
20260505023351 17 331 4.8 4.8 0.00 0.00 0.00 62 1004.0
20260505022848 17 331 6.4 9.7 0.00 0.00 0.00 61 1003.8
20260505022345 17 331 4.8 4.8 0.00 0.00 0.00 61 1003.9
20260505021842 17 331 4.8 8.0 0.00 0.00 0.00 61 1003.9
20260505021338 17 331 4.8 4.8 0.00 0.00 0.00 60 1004.0
20260505020834 17 331 4.8 9.7 0.00 0.00 0.00 60 1004.1
20260505020330 17 331 1.6 3.2 0.00 0.00 0.00 60 1003.9
20260505015827 17 331 1.6 3.2 0.00 0.00 0.00 60 1003.6
20260505015324 17 331 3.2 4.8 0.00 0.00 0.00 58 1003.9
20260505014821 17 330 4.8 4.8 0.00 0.00 0.00 59 1003.8
20260505014318 16 330 3.2 3.2 0.00 0.00 0.00 62 1003.5
20260505013815 15 330 0.0 0.0 0.00 0.00 0.00 63 1003.4
20260505013312 15 330 0.0 0.0 0.00 0.00 0.00 63 1003.2
20260505012811 16 330 0.0 0.0 0.00 0.00 0.00 62 1003.4
20260505012308 16 330 0.0 0.0 0.00 0.00 0.00 62 1003.0
20260505011803 16 330 0.0 0.0 0.00 0.00 0.00 61 1003.2
20260505011301 16 330 0.0 0.0 0.00 0.00 0.00 61 1003.1
20260505010757 16 330 0.0 0.0 0.00 0.00 0.00 59 1003.0
20260505010253 17 330 0.0 0.0 0.00 0.00 0.00 58 1002.9
20260505005749 17 330 0.0 0.0 0.00 0.00 0.00 56 1002.8
20260505005246 18 330 0.0 0.0 0.00 0.00 0.00 54 1002.9
20260505004743 19 330 0.0 0.0 0.00 0.00 0.00 50 1002.8
20260505004239 20 330 0.0 0.0 0.00 0.00 0.00 47 1002.8
20260505003737 19 330 0.0 0.0 0.00 0.00 0.00 49 1002.5
20260505003235 20 331 0.0 0.0 0.00 0.00 0.00 46 1002.5
20260505002731 20 331 1.6 1.6 0.00 0.00 0.00 45 1002.5
20260505002228 20 331 1.6 1.6 0.00 0.00 0.00 45 1002.5
20260505001725 20 331 0.0 0.0 0.00 0.00 0.00 45 1002.3
20260505001223 21 331 0.0 0.0 0.00 0.00 0.00 43 1002.6
20260505000720 21 331 1.6 1.6 0.00 0.00 0.00 42 1002.3
20260505000218 21 331 0.0 1.6 0.00 0.00 0.00 42 1002.2
20260504235714 21 331 1.6 1.6 0.00 0.00 0.00 41 1002.3
20260504235210 22 331 3.2 3.2 0.00 0.00 0.00 41 1002.3
20260504234708 22 331 1.6 1.6 0.00 0.00 0.00 40 1002.2
20260504234205 22 331 3.2 3.2 0.00 0.00 0.00 40 1001.8
20260504233700 22 331 4.8 4.8 0.00 0.00 0.00 39 1001.9
20260504233156 22 331 3.2 3.2 0.00 0.00 0.00 39 1002.0
20260504232654 23 331 3.2 3.2 0.00 0.00 0.00 39 1002.0
20260504232151 23 331 4.8 8.0 0.00 0.00 0.00 38 1002.1
20260504231648 23 331 4.8 4.8 0.00 0.00 0.00 37 1002.0
20260504231144 23 331 8.0 9.7 0.00 0.00 0.00 36 1001.8
20260504230640 23 331 4.8 4.8 0.00 0.00 0.00 35 1002.0
20260504230139 23 331 11.3 12.9 0.00 0.00 0.00 34 1002.1
20260504225637 24 331 6.4 11.3 0.00 0.00 0.00 34 1002.0
20260504225133 24 331 6.4 8.0 0.00 0.00 0.00 33 1002.1
20260504224630 25 331 8.0 11.3 0.00 0.00 0.00 33 1002.1
20260504224127 24 331 11.3 12.9 0.00 0.00 0.00 32 1002.2
20260504223624 24 331 8.0 12.9 0.00 0.00 0.00 33 1002.0
20260504223120 24 331 6.4 8.0 0.00 0.00 0.00 33 1002.3
20260504222617 25 331 8.0 9.7 0.00 0.00 0.00 32 1002.1
20260504222114 25 331 16.1 20.9 0.00 0.00 0.00 31 1002.0
20260504221611 25 331 6.4 8.0 0.00 0.00 0.00 30 1001.9
20260504221108 25 331 4.8 9.7 0.00 0.00 0.00 28 1002.0
20260504220604 26 331 9.7 11.3 0.00 0.00 0.00 28 1002.0
20260504215558 25 331 4.8 8.0 0.00 0.00 0.00 29 1001.9
20260504215055 25 331 6.4 9.7 0.00 0.00 0.00 29 1002.0
20260504214551 25 331 11.3 12.9 0.00 0.00 0.00 29 1002.1
20260504214048 25 331 6.4 8.0 0.00 0.00 0.00 28 1001.8
20260504213544 25 331 8.0 11.3 0.00 0.00 0.00 29 1001.9
20260504213041 26 331 12.9 16.1 0.00 0.00 0.00 28 1001.9
20260504212537 26 331 1.6 1.6 0.00 0.00 0.00 28 1002.0
20260504212035 27 332 4.8 11.3 0.00 0.00 0.00 28 1001.9
20260504211531 27 332 1.6 1.6 0.00 0.00 0.00 27 1001.9
20260504211028 27 332 6.4 9.7 0.00 0.00 0.00 25 1002.0
20260504210525 27 331 6.4 9.7 0.00 0.00 0.00 27 1002.0
20260504210022 27 332 4.8 9.7 0.00 0.00 0.00 27 1001.8
20260504205520 26 331 9.7 11.3 0.00 0.00 0.00 26 1002.1
20260504205018 27 332 6.4 8.0 0.00 0.00 0.00 27 1001.9
20260504204515 27 332 0.0 1.6 0.00 0.00 0.00 29 1002.0
20260504204014 26 331 8.0 9.7 0.00 0.00 0.00 27 1002.1
20260504203512 26 332 4.8 8.0 0.00 0.00 0.00 29 1002.2
20260504203009 26 332 3.2 4.8 0.00 0.00 0.00 26 1002.0
20260504202504 26 332 4.8 8.0 0.00 0.00 0.00 26 1002.1
20260504202001 27 332 14.5 17.7 0.00 0.00 0.00 28 1002.2
20260504201458 26 332 6.4 8.0 0.00 0.00 0.00 28 1002.3
20260504200956 27 331 8.0 14.5 0.00 0.00 0.00 27 1002.4
20260504200453 26 332 3.2 3.2 0.00 0.00 0.00 28 1002.4
20260504195949 27 332 8.0 11.3 0.00 0.00 0.00 27 1002.4
20260504195445 29 332 1.6 3.2 0.00 0.00 0.00 27 1002.4
20260504194942 28 332 3.2 3.2 0.00 0.00 0.00 25 1002.5
20260504194438 28 332 3.2 3.2 0.00 0.00 0.00 24 1002.6
20260504193934 28 332 4.8 8.0 0.00 0.00 0.00 25 1002.6
20260504193432 27 332 3.2 3.2 0.00 0.00 0.00 26 1003.1
20260504192930 27 331 9.7 12.9 0.00 0.00 0.00 26 1003.1
20260504192427 27 331 4.8 4.8 0.00 0.00 0.00 26 1003.0
20260504191926 27 331 3.2 3.2 0.00 0.00 0.00 25 1003.1
20260504191424 27 332 3.2 8.0 0.00 0.00 0.00 27 1003.5
20260504190919 28 332 1.6 1.6 0.00 0.00 0.00 28 1003.2
20260504190414 28 332 4.8 4.8 0.00 0.00 0.00 24 1003.5
20260504185911 27 332 3.2 4.8 0.00 0.00 0.00 25 1003.4
20260504185408 28 332 8.0 9.7 0.00 0.00 0.00 23 1003.4
20260504180109 26 332 0.0 1.6 0.00 0.00 0.00 30 1004.0
20260504175606 26 332 0.0 1.6 0.00 0.00 0.00 30 1004.0
20260504175103 25 331 0.0 1.6 0.00 0.00 0.00 31 1004.1
20260504174601 25 332 4.8 4.8 0.00 0.00 0.00 30 1004.2
20260504174057 25 331 3.2 3.2 0.00 0.00 0.00 31 1004.4
20260504173554 25 331 1.6 3.2 0.00 0.00 0.00 31 1004.1
20260504173052 25 331 9.7 14.5 0.00 0.00 0.00 28 1004.4
20260504172548 26 332 0.0 0.0 0.00 0.00 0.00 31 1004.3
20260504172044 25 331 6.4 12.9 0.00 0.00 0.00 30 1004.5
20260504171541 26 331 1.6 1.6 0.00 0.00 0.00 33 1004.5
20260504171038 26 331 1.6 1.6 0.00 0.00 0.00 31 1004.6
20260504170534 26 331 9.7 11.3 0.00 0.00 0.00 31 1004.8
20260504150911 23 330 1.6 3.2 0.00 0.00 0.00 39 1006.1
20260504150403 22 330 1.6 3.2 0.00 0.00 0.00 39 1006.0